Regional Weather Roundup
Issued by NWS Cleveland, OH

Home | Current Version | Previous Version | Graphics & Text | Print | Product List | Glossary On
Versions: 1 2 3 4 5 6 7 8 9 10 11 12 13 14 15 16 17 18 19 20 21 22 23 24 25 26 27 28 29 30 31 32 33 34 35 36 37 38 39 40 41 42 43 44 45 46 47 48 49 50
000
ASUS41 KCLE 262202
RWRCLE
OHIO REGIONAL WEATHER ROUNDUP
NATIONAL WEATHER SERVICE CLEVELAND, OH
500 PM EST MON JAN 26 2015

NOTE: "FAIR" INDICATES FEW OR NO CLOUDS BELOW 12,000 FEET WITH NO
SIGNIFICANT WEATHER AND/OR OBSTRUCTIONS TO VISIBILITY.

OHZ001>008-015>018-024>027-034-035-043-044-262300-
   NORTHWEST OHIO

CITY           SKY/WX    TMP DP  RH WIND       PRES   REMARKS
DEFIANCE       MOCLDY    22   8  55 NW3       29.93R
FINDLAY        CLEAR     17  10  74 W7        29.91R WCI   8
TOLEDO EXPRESS PTCLDY    22  10  60 NW6       29.91R WCI  14
TOLEDO EXEC    CLEAR     20  10  65 E7        29.93R WCI  11
LIMA           CLEAR     17   9  70 N5        29.90R WCI  10
$$

OHZ009>014-019>023-028>033-038-089-262300-
   NORTHEAST OHIO

CITY           SKY/WX    TMP DP  RH WIND       PRES   REMARKS
CLE-HOPKINS    LGT SNOW  20  15  81 N15       29.90R WCI   6
CLE-LAKEFRONT  CLOUDY    21  15  78 N14       29.88R WCI   8
CUY CO. ARPT   CLOUDY    21  18  86 NE10G18   29.86R FOG     WCI  10
LORAIN-ELYRIA  LGT SNOW  19  13  77 N9        29.89R WCI   8
ASHTABULA      CLOUDY    20  15  81 N7        29.84R WCI  11
AKRON-CANTON   CLOUDY    23  16  74 N13       29.80R HAZE    WCI  11
WOOSTER        MIX PCPN  19  14  81 N18       29.84R WCI   4
MANSFIELD      CLOUDY    17  11  77 N9        29.85R HAZE    WCI   6
YOUNGSTOWN     CLOUDY    21  16  81 NW17      29.78R WCI   7
$$

OHZ042-051>053-060>062-070>072-077>081-262300-
  SOUTHWEST OHIO

CITY           SKY/WX    TMP DP  RH WIND       PRES   REMARKS
CINC-COVINGTON MOCLDY    29  19  66 NW9       29.90R WCI  20
CINC-LUNKEN    CLEAR     29  18  63 N7        29.93R WCI  22
HAMILTON       CLEAR     27  16  63 N8        29.94R WCI  19
DAYTON         MOCLDY    20  12  71 NW9       29.92R WCI   9
WRIGHT-PAT AFB NOT AVBL
DAYTON GENERAL CLEAR     22  13  68 NW10      29.90R WCI  11
WILMINGTON     PTCLDY    22  12  65 NW10      29.88R WCI  11
$$

OHZ036-037-039>041-045>050-054>059-063>069-073>076-082>088-262300-
  CENTRAL AND SOUTHEAST OHIO

CITY           SKY/WX    TMP DP  RH WIND       PRES   REMARKS
COLUMBUS       MOCLDY    20  12  71 NW9       29.88R WCI   9
OSU AIRPORT    PTCLDY    17  10  74 N10       29.88R WCI   5
BOLTON FIELD   CLEAR     18  12  79 NW12      29.89R WCI   5
RICKENBACK AFB NOT AVBL
NEWARK         CLOUDY    22  14  71 NW12      29.85R WCI  10
MARION         CLEAR     15   8  73 N9        29.89R WCI   3
LANCASTER      CLOUDY    21  15  78 NW9       29.87R WCI  11
ZANESVILLE     CLOUDY    24  19  81 N9        29.83R WCI  14
NEW PHILLY     CLOUDY    24  18  77 NW13      29.82R WCI  12
$$


USA.gov is the U.S. government's official web portal to all federal, state and local government web resources and services.